COSMOS 2251 DEB, 34576

Orbit data source: Space-Track

COSMOS 2251 DEB, 34576 is space debris in LEO originally from a launch on Wed, 16 Jun 1993 UTC launched from the Plesetsk Missile And Space Complex (PKMTR). The debris from Iridium 33, an American commercial communications satellite, has been tracked extensively since its accidental collision with the defunct Russian satellite Cosmos 2251 in 2009. This event, occurring at high speed in low Earth orbit (LEO), generated thousands of pieces of space debris, significantly increasing the risk of further collisions. The Iridium 33 debris cloud has impacted space traffic management and orbital debris mitigation strategies, making it a subject of ongoing study in space situational awareness.

Loading next visibility...
Identifier
34576, 1993-036VN
Orbit
LEO
Country
Flag of CISCIS
Related business
Manufacturer
Unknown
Mission
Spacecraft
Bus & Motor
Unknown
Mass
Unknown
Launch date (UTC)
1993-06-16 (32 years ago)
Launch vehicle
Unknown
Launch site
Plesetsk Missile And Space Complex (PKMTR)
Object type
Payload
Rocket body
Debris
Shape & HBR
Unknown shape, 0.1 m
Radar Cross Section
Small (<0.1 m²)

Expand to show TLE details & history
Last TLE update: 14 hours ago

TLE from 14 hours ago
0 COSMOS 2251 DEB
1 34576U 93036VN  25303.20139456  .00005109  00000-0  11916-2 0  9994
2 34576  74.0346 220.6451 0007168 349.7111 134.2945 14.55001244878332
Epoch: 2025-10-30T04:50Z
TLE epoch observation values (Epoch: 2025-10-30T04:50:00.489Z)
Latitude
52.90245°
Longitude
-92.72437°
Altitude
721.193 km
Speed
7.498 km/s
True Right ascension
01h 14m 09s
True Declination
52° 44' 10"
Sunlit
Object was in full shadow at epoch
Visualization orbit readout
Latitude
Unknown
Longitude
Unknown
Altitude
Unknown
Speed
Unknown
Apparent Right ascension
Unknown
Apparent Declination
Unknown
Sunlit
N/A
Visualization observer readout
Local Sidereal Time
14:50:36
Azimuth
Unknown
Elevation
Unknown
Doppler factor
Unknown
Orbital elements
Apogee altitude
712.042 km
Perigee altitude
701.885 km
Semi-major axis
7,085.101 km
Eccentricity
0.00072
Inclination
74.0346°
RAAN
220.6451°
Arg. of periapsis
349.7111°
True anomaly
134.35326°
Mean anomaly
134.2945°
Eccentric anomaly
134.32388°
Mean motion
3.63935 °/min
Orbital period
98.92 mins
BSTAR
0.0011916

Documentation

Showing up to 5 results
|